This demonstration page uses our WeatherBlox Daily Observations layout. Learn more.

Left ArrowRight Arrow

36.17497, -115.13722

Hourly Observations for November 20, 2019

Temp ( °F °C ) Dew Point ( °F °C ) Humidity (%) Winds ( mph kmh ) Pressure ( in mb ) Visibility ( mi km ) Precip ( " mm )
12:53 am 00:53 Cloudy with Light Rain 57 13.9 54 12.2 90 90 ESE 17 28 29.51 999 10 16 0.00 0.00
1:17 am 01:17 Cloudy with Light Rain 56 13.3 54 12.2 93 93 E 13 20 29.48 998 10 16 0.01 0.25
1:53 am 01:53 Cloudy with Light Rain 56 13.3 53 11.7 90 90 E 14 22 29.50 999 8 13 0.03 0.76
2:53 am 02:53 Cloudy with Light Rain 54 12.2 54 12.2 100 100 SE 13 20 29.50 999 10 16 0.01 0.25
3:00 am 03:00 Cloudy with Light Rain 54 12.2 54 12.2 100 100 SE 14 22 29.48 998 10 16 0.00 0.00
3:53 am 03:53 Mostly Cloudy with Light Rain 54 12.2 53 11.7 97 97 ENE 7 11 29.49 999 10 16 0.00 0.00
4:20 am 04:20 Mostly Cloudy with Light Rain 54 12.2 53 11.7 97 97 ENE 9 15 29.47 998 10 16 0.00 0.00
4:27 am 04:27 Cloudy with Light Rain 54 12.2 52 11.1 93 93 E 8 13 29.47 998 10 16 0.00 0.00
4:53 am 04:53 Cloudy 54 12.2 52 11.1 93 93 ESE 7 11 29.49 999 10 16 0.00 0.00
5:03 am 05:03 Cloudy 54 12.2 51 10.6 90 90 E 6 9 29.48 998 10 16 0.00 0.00
5:16 am 05:16 Cloudy with Light Rain 54 12.2 52 11.1 93 93 E 3 6 29.49 999 10 16 0.00 0.00
5:31 am 05:31 Cloudy 54 12.2 51 10.6 90 90 S 8 13 29.50 999 10 16 0.00 0.00
5:53 am 05:53 Cloudy with Rain 53 11.7 51 10.6 93 93 SE 8 13 29.53 1000 4 6 0.13 3.30
6:27 am 06:27 Cloudy with Light Rain 52 11.1 51 10.6 97 97 ENE 10 17 29.53 1000 9 14 0.08 2.03
6:53 am 06:53 Cloudy with Light Rain 52 11.1 51 10.6 97 97 ENE 12 19 29.54 1000 10 16 0.09 2.29
7:24 am 07:24 Cloudy 52 11.1 51 10.6 97 97 E 12 19 29.53 1000 10 16 0.01 0.25
7:53 am 07:53 Cloudy with Light Rain 53 11.7 52 11.1 96 96 E 12 19 29.54 1001 8 13 0.03 0.76
8:20 am 08:20 Cloudy 53 11.7 52 11.1 96 96 ENE 13 20 29.52 1000 10 16 0.02 0.51
8:51 am 08:51 Cloudy with Rain 52 11 52 11 100 100 E 10 17 29.53 1000 2 3 0.06 1.52
8:53 am 08:53 Cloudy with Rain 52 11.1 52 11.1 100 100 E 9 15 29.56 1001 2 3 0.07 1.78
9:02 am 09:02 Cloudy with Rain 52 11.1 52 11.1 100 100 E 12 19 29.53 1000 3 4 0.02 0.51
9:34 am 09:34 Cloudy with Rain 52 11.1 52 11.1 100 100 E 3 6 29.54 1000 2 3 0.11 2.79
9:53 am 09:53 Cloudy with Light Rain 52 11.1 52 11.1 100 100 E 7 11 29.56 1001 3 4 0.16 4.06
10:05 am 10:05 Cloudy with Light Rain 52 11.1 52 11.1 100 100 ESE 7 11 29.54 1000 2 3 0.01 0.25
10:13 am 10:13 Cloudy with Light Rain 52 11.1 52 11.1 100 100 E 8 13 29.54 1000 2 3 0.02 0.51
10:41 am 10:41 Cloudy 53 11.7 53 11.7 100 100 E 10 17 29.52 1000 10 16 0.02 0.51
10:48 am 10:48 Cloudy 54 12 54 12 100 100 E 8 13 29.52 1000 10 16 0.02 0.51
10:53 am 10:53 Cloudy 53 11.7 53 11.7 100 100 E 6 9 29.56 1001 10 16 0.02 0.51
11:41 am 11:41 Cloudy 55 12.8 54 12.2 96 96 E 7 11 29.50 999 10 16 0.03 0.76
11:53 am 11:53 Mostly Cloudy 56 13.3 53 11.7 90 90 ENE 8 13 29.54 1001 10 16 0.03 0.76
12:53 pm 12:53 Mostly Sunny 59 15 53 11.7 81 81 E 8 13 29.51 999 10 16 0.00 0.00
1:53 pm 13:53 Mostly Cloudy 61 16.1 49 9.4 65 65 ESE 15 24 29.49 999 10 16 0.00 0.00
2:42 pm 14:42 Cloudy 57 13.9 44 6.7 62 62 W 12 19 29.48 998 10 16 0.01 0.25
2:53 pm 14:53 Mostly Cloudy 57 13.9 42 5.6 58 58 WSW 14 22 29.55 1001 10 16 0.01 0.25
3:53 pm 15:53 Partly Cloudy 56 13.3 42 5.6 60 60 NNW 6 9 29.56 1001 10 16 0.00 0.00
4:53 pm 16:53 Clear 53 11.7 43 6.1 69 69 NNW 10 17 29.59 1002 10 16 0.00 0.00
5:53 pm 17:53 Cloudy 52 11.1 43 6.1 72 72 NW 12 19 29.61 1003 10 16 0.00 0.00
6:53 pm 18:53 Partly Cloudy 51 10.6 42 5.6 71 71 NNW 9 15 29.65 1004 10 16 0.00 0.00
7:53 pm 19:53 Mostly Cloudy 51 10.6 43 6.1 74 74 N 3 6 29.67 1005 10 16 0.00 0.00
8:53 pm 20:53 Cloudy 51 10.6 44 6.7 77 77 W 3 6 29.70 1006 10 16 0.00 0.00
9:24 pm 21:24 Cloudy with Light Rain 49 9.4 41 5 74 74 S 14 22 29.71 1006 10 16 0.01 0.25
9:53 pm 21:53 Cloudy with Rain 47 8.3 42 5.6 83 83 SW 16 26 29.75 1007 7 11 0.07 1.78
10:53 pm 22:53 Cloudy with Light Rain 47 8.3 43 6.1 86 86 Calm 29.77 1008 8 13 0.03 0.76
11:53 pm 23:53 Cloudy with Light Rain 45 7.2 43 6.1 93 93 E 8 13 29.78 1009 10 16 0.02 0.51

Powered by AerisWeather